Location: Stoke Bliss
(52.2667°N, 2.5167°W)
Time: 16:42:28
(UTC+00:00)

Cosmos 1066 Rocket - Pass Details

Date: 03 March 2021
Orbit: 799 x 894 km, 81.2° (Epoch: 16 April)

Event Time Altitude Azimuth Distance (km) Brightness Sun altitude
Rises 19:33:42 0° 349° (NNW) 3,430 7.7 -16.1°
Reaches altitude 10° 19:36:10 10° 353° (N) 2,504 6.9 -16.5°
Maximum altitude 19:41:46 56° 72° (ENE) 1,037 4.3 -17.3°
Enters shadow 19:45:45 20° 144° (SE) 1,934 5.6 -17.9°
